FW9049 Weather Reports


Display with metric or nautical units.
time (UTC)temp
F
wind
direction
speed
MPH
gust
MPH
rain 1hr
in
rain 24hr
in
rain mn
in
humidity
%
barometer
mb
20260505200100 61 335 0.0 0.0 0.00 0.00 0.00 76 1018.2
20260505195556 64 31 2.0 2.0 0.00 0.00 0.00 71 1018.3
20260505195054 64 348 1.0 1.0 0.00 0.00 0.00 71 1018.3
20260505194550 63 345 0.0 0.0 0.00 0.00 0.00 72 1018.4
20260505194046 63 335 0.0 0.0 0.00 0.00 0.00 72 1018.5
20260505193543 62 339 0.0 0.0 0.00 0.00 0.00 73 1018.5
20260505193040 62 337 0.0 0.0 0.00 0.00 0.00 74 1018.5
20260505192539 63 339 1.0 1.0 0.00 0.00 0.00 73 1018.5
20260505192036 63 341 0.0 0.0 0.00 0.00 0.00 72 1018.5
20260505191534 62 336 0.0 1.0 0.00 0.00 0.00 73 1018.5
20260505191032 62 338 0.0 0.0 0.00 0.00 0.00 74 1018.5
20260505190526 61 335 0.0 0.0 0.00 0.00 0.00 76 1018.4
20260505190023 61 336 0.0 0.0 0.00 0.00 0.00 76 1018.5
20260505185520 61 341 0.0 0.0 0.00 0.00 0.00 77 1018.5
20260505185016 61 340 0.0 0.0 0.00 0.00 0.00 77 1018.5
20260505184513 60 340 0.0 0.0 0.00 0.00 0.00 77 1018.6
20260505184009 60 332 0.0 0.0 0.00 0.00 0.00 78 1018.7
20260505183506 60 339 0.0 0.0 0.00 0.00 0.00 78 1018.6
20260505183004 60 336 0.0 0.0 0.00 0.00 0.00 77 1018.5
20260505182500 60 340 0.0 0.0 0.00 0.00 0.00 78 1018.7
20260505181956 60 326 0.0 1.0 0.00 0.00 0.00 79 1018.5
20260505181453 60 329 1.0 1.0 0.00 0.00 0.00 80 1018.3
20260505180950 59 340 0.0 0.0 0.00 0.00 0.00 80 1018.6
20260505180446 59 323 1.0 1.0 0.00 0.00 0.00 80 1018.4
20260505175943 59 330 0.0 1.0 0.00 0.00 0.00 80 1018.4
20260505175439 59 333 0.0 1.0 0.00 0.00 0.00 80 1018.3
20260505174936 59 333 0.0 1.0 0.00 0.00 0.00 79 1018.3
20260505174434 59 333 0.0 0.0 0.00 0.00 0.00 80 1018.3
20260505173929 58 331 0.0 0.0 0.00 0.00 0.00 81 1018.4
20260505173426 59 340 0.0 0.0 0.00 0.00 0.00 80 1018.4
20260505172923 59 340 0.0 1.0 0.00 0.00 0.00 80 1018.2
20260505172422 59 336 1.0 1.0 0.00 0.00 0.00 80 1018.3
20260505171920 59 342 0.0 0.0 0.00 0.00 0.00 80 1018.3
20260505171418 59 331 0.0 0.0 0.00 0.00 0.00 79 1018.1
20260505170914 59 334 0.0 0.0 0.00 0.00 0.00 79 1018.2
20260505170411 59 334 0.0 0.0 0.00 0.00 0.00 80 1018.3
20260505165906 58 320 1.0 1.0 0.00 0.00 0.00 81 1018.1
20260505165403 58 335 0.0 1.0 0.00 0.00 0.00 81 1018.2
20260505164858 58 338 0.0 0.0 0.00 0.00 0.00 81 1018.1
20260505164355 59 330 0.0 1.0 0.00 0.00 0.00 81 1018.1
20260505163853 58 337 0.0 0.0 0.00 0.00 0.00 81 1018.1
20260505163352 58 286 1.0 1.0 0.00 0.00 0.00 81 1017.8
20260505162850 58 333 0.0 0.0 0.00 0.00 0.00 82 1017.8
20260505162346 58 331 0.0 1.0 0.00 0.00 0.00 83 1018.0
20260505161843 57 322 0.0 1.0 0.00 0.00 0.00 85 1017.8
20260505161340 57 332 1.0 1.0 0.00 0.00 0.00 85 1018.1
20260505160837 56 340 0.0 1.0 0.00 0.00 0.00 86 1018.1
20260505160335 57 87 3.0 3.0 0.00 0.00 0.00 85 1017.8
20260505153314 55 333 0.0 1.0 0.00 0.00 0.00 88 1018.0
20260505152811 55 334 1.0 1.0 0.00 0.00 0.00 88 1017.8
20260505152308 56 340 0.0 0.0 0.00 0.00 0.00 88 1017.7
20260505151802 55 335 0.0 0.0 0.00 0.00 0.00 88 1018.0
20260505151259 55 335 0.0 0.0 0.00 0.00 0.00 89 1017.8
20260505150756 55 329 0.0 1.0 0.00 0.00 0.00 89 1017.7
20260505150253 55 329 0.0 0.0 0.00 0.00 0.00 89 1017.5
20260505140223 54 335 1.0 1.0 0.00 0.00 0.00 91 1016.9
20260505130147 54 331 0.0 1.0 0.00 0.00 0.00 90 1016.9
20260505124637 54 341 1.0 2.0 0.00 0.00 0.00 89 1016.7
20260505124133 54 299 1.0 1.0 0.00 0.00 0.00 89 1016.6
20260505123629 54 322 1.0 1.0 0.00 0.00 0.00 89 1016.6
20260505123126 54 358 1.0 2.0 0.00 0.00 0.00 89 1016.5
20260505122623 54 341 0.0 0.0 0.00 0.00 0.00 89 1016.8
20260505122120 54 327 0.0 0.0 0.00 0.00 0.00 88 1016.5
20260505121617 54 333 0.0 0.0 0.00 0.00 0.00 88 1016.6
20260505121114 54 339 0.0 0.0 0.00 0.00 0.00 88 1016.4
20260505120610 54 338 0.0 1.0 0.00 0.00 0.00 88 1016.6
20260505120106 55 340 1.0 1.0 0.00 0.00 0.00 88 1016.8
20260505115600 54 339 1.0 1.0 0.00 0.00 0.00 88 1016.3
20260505115058 54 328 1.0 1.0 0.00 0.00 0.00 88 1016.5
20260505114555 54 262 1.0 2.0 0.00 0.00 0.00 88 1016.5
20260505114051 55 275 1.0 2.0 0.00 0.00 0.00 88 1016.6
20260505113547 55 332 0.0 0.0 0.00 0.00 0.00 87 1016.7
20260505113044 55 332 1.0 1.0 0.00 0.00 0.00 87 1016.4
20260505112540 55 335 0.0 0.0 0.00 0.00 0.00 87 1016.3
20260505112039 55 327 0.0 1.0 0.00 0.00 0.00 87 1016.4
20260505111532 55 335 0.0 0.0 0.00 0.00 0.00 87 1016.6
20260505111029 55 330 0.0 0.0 0.00 0.00 0.00 87 1016.4
20260505110525 55 331 0.0 1.0 0.00 0.00 0.00 87 1016.4
20260505101958 55 323 0.0 1.0 0.00 0.00 0.00 86 1016.3
20260505101455 55 330 0.0 1.0 0.00 0.00 0.00 86 1016.0
20260505100952 55 333 0.0 1.0 0.00 0.00 0.00 86 1016.3
20260505100449 55 325 1.0 1.0 0.00 0.00 0.00 86 1016.2
20260505095945 55 330 0.0 1.0 0.00 0.00 0.00 86 1016.0
20260505095442 55 332 0.0 1.0 0.00 0.00 0.00 86 1016.1
20260505094938 55 331 0.0 1.0 0.00 0.00 0.00 86 1016.2
20260505094435 55 339 0.0 0.0 0.00 0.00 0.00 86 1015.9
20260505093931 55 325 1.0 1.0 0.00 0.00 0.00 87 1016.0
20260505093428 55 337 0.0 0.0 0.00 0.00 0.00 87 1016.0
20260505092925 55 335 0.0 1.0 0.00 0.00 0.00 87 1016.1
20260505092423 55 338 1.0 1.0 0.00 0.00 0.00 87 1016.1
20260505091920 55 327 1.0 1.0 0.00 0.00 0.00 87 1016.0
20260505091418 55 333 0.0 1.0 0.00 0.00 0.00 86 1015.7
20260505090916 55 329 1.0 1.0 0.00 0.00 0.00 85 1015.7
20260505090414 56 332 0.0 1.0 0.00 0.00 0.00 85 1015.8
20260505085911 56 341 0.0 0.0 0.00 0.00 0.00 85 1015.7
20260505085409 56 334 1.0 1.0 0.00 0.00 0.00 84 1015.5
20260505084906 56 337 1.0 1.0 0.00 0.00 0.00 84 1015.7
20260505084405 56 335 0.0 0.0 0.00 0.00 0.00 84 1015.8
20260505083902 56 333 1.0 2.0 0.00 0.00 0.00 83 1015.7
20260505083359 56 229 1.0 2.0 0.00 0.00 0.00 84 1015.7
20260505082855 56 296 1.0 1.0 0.00 0.00 0.00 84 1015.6
20260505082351 56 325 1.0 1.0 0.00 0.00 0.00 84 1015.6
20260505081848 57 315 1.0 1.0 0.00 0.00 0.00 84 1015.6
20260505081345 57 330 1.0 1.0 0.00 0.00 0.00 84 1015.4
20260505080842 57 325 1.0 1.0 0.00 0.00 0.00 84 1015.6
20260505080338 56 330 1.0 1.0 0.00 0.00 0.00 84 1015.5
20260505075833 56 343 1.0 1.0 0.00 0.00 0.00 85 1015.2
20260505075330 56 336 0.0 0.0 0.00 0.00 0.00 85 1015.5
20260505074828 56 330 1.0 1.0 0.00 0.00 0.00 85 1015.3
20260505074325 56 338 0.0 0.0 0.00 0.00 0.00 85 1015.1
20260505073822 56 340 1.0 1.0 0.00 0.00 0.00 85 1015.3
20260505073320 56 329 1.0 1.0 0.00 0.00 0.00 84 1014.9
20260505072817 56 331 1.0 1.0 0.00 0.00 0.00 84 1015.0
20260505072313 56 339 0.0 0.0 0.00 0.00 0.00 84 1015.0
20260505071809 56 337 0.0 0.0 0.00 0.00 0.00 84 1014.8
20260505071306 57 334 0.0 1.0 0.00 0.00 0.00 83 1014.9
20260505070804 57 335 0.0 0.0 0.00 0.00 0.00 83 1015.0
20260505070300 57 335 0.0 0.0 0.00 0.00 0.00 82 1014.6
20260505065755 58 347 0.0 1.0 0.00 0.00 0.00 82 1014.8
20260505065252 58 333 0.0 1.0 0.00 0.00 0.00 81 1014.8
20260505064749 59 332 1.0 1.0 0.00 0.00 0.00 81 1014.5
20260505064246 59 88 1.0 2.0 0.00 0.00 0.00 82 1014.4
20260505063744 59 337 0.0 0.0 0.00 0.00 0.00 81 1014.4
20260505063240 59 340 1.0 1.0 0.00 0.00 0.00 81 1014.3
20260505062736 60 337 0.0 1.0 0.00 0.00 0.00 80 1014.3
20260505062234 60 326 0.0 0.0 0.00 0.00 0.00 80 1014.4
20260505061731 60 325 1.0 1.0 0.00 0.00 0.00 79 1014.2
20260505061229 61 332 0.0 0.0 0.00 0.00 0.00 79 1014.3
20260505060726 61 333 0.0 0.0 0.00 0.00 0.00 77 1013.8
20260505060223 62 334 0.0 0.0 0.00 0.00 0.00 77 1013.9
20260505055718 62 336 0.0 0.0 0.00 0.00 0.00 77 1013.8
20260505055215 63 335 0.0 0.0 0.00 0.00 0.00 77 1013.8
20260505054712 63 339 0.0 0.0 0.00 0.00 0.00 76 1014.0
20260505054210 64 334 0.0 0.0 0.00 0.00 0.00 75 1013.8
20260505053708 64 356 0.0 1.0 0.00 0.00 0.00 75 1014.0
20260505053204 64 335 1.0 2.0 0.00 0.00 0.00 75 1013.7
20260505052701 64 330 1.0 1.0 0.00 0.00 0.00 75 1013.9
20260505052158 64 316 1.0 1.0 0.00 0.00 0.00 74 1013.6
20260505051656 64 342 1.0 1.0 0.00 0.00 0.00 75 1013.6
20260505051154 64 335 0.0 0.0 0.00 0.00 0.00 75 1013.7
20260505050651 65 342 0.0 1.0 0.00 0.00 0.00 75 1013.5
20260505050149 65 334 0.0 0.0 0.00 0.00 0.00 74 1013.6
20260505041619 64 335 0.0 0.0 0.00 0.00 0.00 79 1013.0
20260505041116 64 337 0.0 0.0 0.00 0.00 0.00 79 1012.9
20260505040613 64 335 0.0 1.0 0.00 0.00 0.00 80 1012.6
20260505040110 65 335 0.0 0.0 0.00 0.00 0.00 79 1012.8
20260505035606 65 335 0.0 0.0 0.00 0.00 0.00 79 1012.5
20260505035103 65 337 0.0 0.0 0.00 0.00 0.00 78 1012.6
20260505034600 66 335 0.0 0.0 0.00 0.00 0.00 77 1012.6
20260505034056 66 338 0.0 0.0 0.00 0.00 0.00 76 1012.4
20260505033553 67 336 0.0 0.0 0.00 0.00 0.00 75 1012.3
20260505033052 67 334 0.0 0.0 0.00 0.00 0.00 75 1012.2
20260505032549 67 340 0.0 0.0 0.00 0.00 0.00 74 1012.3
20260505032045 67 311 1.0 1.0 0.00 0.00 0.00 74 1012.2
20260505031543 68 340 0.0 1.0 0.00 0.00 0.00 74 1012.1
20260505031039 68 331 0.0 1.0 0.00 0.00 0.00 73 1012.2
20260505030536 68 336 0.0 0.0 0.00 0.00 0.00 73 1012.2
20260505030032 68 332 0.0 0.0 0.00 0.00 0.00 73 1012.1
20260505025528 69 356 1.0 1.0 0.00 0.00 0.00 71 1011.9
20260505025027 69 335 1.0 1.0 0.00 0.00 0.00 71 1011.9
20260505024524 70 332 0.0 0.0 0.00 0.00 0.00 70 1012.0
20260505024021 70 336 0.0 0.0 0.00 0.00 0.00 69 1012.1
20260505023518 71 359 0.0 1.0 0.00 0.00 0.00 68 1012.0
20260505023015 71 312 1.0 2.0 0.00 0.00 0.00 68 1011.9
20260505022513 70 338 0.0 0.0 0.00 0.00 0.00 68 1012.0
20260505022010 71 298 2.0 5.0 0.00 0.00 0.00 67 1011.9
20260505021506 71 348 1.0 1.0 0.00 0.00 0.00 66 1011.8
20260505021003 72 313 1.0 1.0 0.00 0.00 0.00 65 1012.0
20260505020457 73 208 2.0 3.0 0.00 0.00 0.00 64 1011.8
20260505015954 74 318 2.0 2.0 0.00 0.00 0.00 61 1011.9
20260505015452 74 330 0.0 1.0 0.00 0.00 0.00 61 1012.0
20260505014949 75 337 0.0 0.0 0.00 0.00 0.00 60 1011.7
20260505014445 76 326 1.0 2.0 0.00 0.00 0.00 58 1012.0
20260505013943 75 335 0.0 0.0 0.00 0.00 0.00 58 1011.8
20260505013440 75 198 2.0 3.0 0.00 0.00 0.00 60 1012.1
20260505012937 75 330 1.0 1.0 0.00 0.00 0.00 60 1012.0
20260505012435 75 328 1.0 1.0 0.00 0.00 0.00 58 1012.1
20260505011932 77 324 2.0 2.0 0.00 0.00 0.00 56 1012.2
20260505011428 77 316 2.0 2.0 0.00 0.00 0.00 56 1012.0
20260505010925 77 351 0.0 1.0 0.00 0.00 0.00 56 1012.3
20260505010420 76 301 2.0 3.0 0.00 0.00 0.00 58 1012.3
20260505005916 76 309 1.0 2.0 0.00 0.00 0.00 59 1012.2
20260505005414 77 328 1.0 2.0 0.00 0.00 0.00 54 1012.2
20260505004911 78 332 1.0 2.0 0.00 0.00 0.00 54 1012.2
20260505004407 78 326 1.0 1.0 0.00 0.00 0.00 54 1012.3
20260505003904 78 303 1.0 2.0 0.00 0.00 0.00 53 1012.3
20260505003402 79 326 1.0 1.0 0.00 0.00 0.00 51 1012.4
20260505002858 78 220 2.0 3.0 0.00 0.00 0.00 52 1012.6
20260505002354 79 307 1.0 2.0 0.00 0.00 0.00 51 1012.4
20260505001853 79 336 1.0 2.0 0.00 0.00 0.00 51 1012.3
20260505001349 78 177 1.0 2.0 0.00 0.00 0.00 53 1012.5
20260505000847 77 324 1.0 2.0 0.00 0.00 0.00 55 1012.2
20260505000344 78 333 2.0 3.0 0.00 0.00 0.00 53 1012.5
20260504235841 77 12 1.0 1.0 0.00 0.00 0.00 52 1012.4
20260504235338 78 349 1.0 2.0 0.00 0.00 0.00 52 1012.5
20260504234834 77 274 2.0 2.0 0.00 0.00 0.00 55 1012.4
20260504234332 76 315 0.0 1.0 0.00 0.00 0.00 54 1012.4
20260504233829 77 321 1.0 1.0 0.00 0.00 0.00 53 1012.3
20260504233324 76 299 1.0 2.0 0.00 0.00 0.00 52 1012.4
20260504232821 76 335 0.0 0.0 0.00 0.00 0.00 54 1012.6
20260504232319 77 244 3.0 3.0 0.00 0.00 0.00 53 1012.8
20260504231815 75 347 2.0 2.0 0.00 0.00 0.00 53 1012.5
20260504231312 78 337 1.0 2.0 0.00 0.00 0.00 50 1012.6
20260504230808 78 323 0.0 1.0 0.00 0.00 0.00 50 1012.8
20260504230306 77 334 0.0 0.0 0.00 0.00 0.00 51 1012.9
20260504225805 77 326 1.0 1.0 0.00 0.00 0.00 52 1013.0
20260504225301 75 334 2.0 2.0 0.00 0.00 0.00 54 1012.9
20260504224758 78 333 1.0 1.0 0.00 0.00 0.00 50 1012.9
20260504224255 77 313 0.0 1.0 0.00 0.00 0.00 54 1013.1
20260504223751 78 312 1.0 1.0 0.00 0.00 0.00 54 1013.2
20260504223247 77 199 3.0 3.0 0.00 0.00 0.00 53 1013.1
20260504222744 78 126 3.0 3.0 0.00 0.00 0.00 52 1013.0
20260504222241 78 323 1.0 1.0 0.00 0.00 0.00 54 1013.0
20260504221739 76 327 1.0 2.0 0.00 0.00 0.00 55 1013.2
20260504221236 75 298 2.0 2.0 0.00 0.00 0.00 58 1013.5
20260504220732 76 344 1.0 1.0 0.00 0.00 0.00 54 1013.2
20260504220229 75 278 3.0 3.0 0.00 0.00 0.00 57 1013.3
20260504215726 74 331 2.0 3.0 0.00 0.00 0.00 58 1013.6
20260504215223 71 334 0.0 1.0 0.00 0.00 0.00 62 1013.6
20260504214719 72 173 3.0 5.0 0.00 0.00 0.00 61 1013.7
20260504214215 75 228 3.0 3.0 0.00 0.00 0.00 54 1013.6
20260504213712 74 335 1.0 1.0 0.00 0.00 0.00 58 1013.6
20260504213209 71 330 2.0 3.0 0.00 0.00 0.00 62 1013.6
20260504212706 73 319 3.0 3.0 0.00 0.00 0.00 58 1013.9
20260504212203 73 359 1.0 1.0 0.00 0.00 0.00 58 1014.0
20260504211700 72 322 1.0 1.0 0.00 0.00 0.00 61 1014.2
20260504211155 74 185 2.0 3.0 0.00 0.00 0.00 58 1013.9
20260504210654 73 323 2.0 2.0 0.00 0.00 0.00 58 1014.2
20260504210150 73 17 1.0 1.0 0.00 0.00 0.00 58 1014.0
20260504205647 73 345 0.0 0.0 0.00 0.00 0.00 57 1014.2
20260504205144 71 288 2.0 2.0 0.00 0.00 0.00 59 1014.6
20260504204643 72 353 0.0 1.0 0.00 0.00 0.00 58 1014.4
20260504204142 72 330 1.0 1.0 0.00 0.00 0.00 58 1014.5
20260504203640 72 334 0.0 1.0 0.00 0.00 0.00 58 1014.5
20260504203137 72 339 0.0 0.0 0.00 0.00 0.00 59 1014.5
20260504202637 71 318 1.0 1.0 0.00 0.00 0.00 61 1014.8
20260504202134 72 347 1.0 1.0 0.00 0.00 0.00 58 1014.7
20260504201631 69 297 0.0 1.0 0.00 0.00 0.00 62 1014.5
20260504201129 71 310 1.0 2.0 0.00 0.00 0.00 61 1014.6
20260504200626 69 323 2.0 2.0 0.00 0.00 0.00 63 1014.9